Regional Weather Roundup
Issued by NWS Newport/Morehead, NC

Current Version | Previous Version | Graphics & Text | Print | Product List | Glossary On
Versions: 1 2 3 4 5 6 7 8 9 10 11 12 13 14 15 16 17 18 19 20 21 22 23 24 25 26 27 28 29 30 31 32 33 34 35 36 37 38 39 40 41 42 43 44 45 46 47 48 49 50
000 ASUS42 KMHX 160610 RWRMHX WEATHER ROUNDUP FOR EASTERN NORTH CAROLINA NATIONAL WEATHER SERVICE NEWPORT/MOREHEAD CITY NC 200 AM EDT TUE SEP 16 2014 NOTE: "FAIR" INDICATES FEW OR NO CLOUDS BELOW 12,000 FEET WITH NO SIGNIFICANT WEATHER AND/OR OBSTRUCTIONS TO VISIBILITY NCZ015>017-031-032-045>047-102-103-160700- NORTH COAST CITY SKY/WX TMP DP RH WIND PRES REMARKS EDENTON CLOUDY 70 65 83 S6 30.07F ELIZABETH CITY CLOUDY 69 63 81 S7 30.07F KITTY HAWK CLOUDY 70 61 74 CALM 30.07F MANTEO CLOUDY 69 62 77 SE3 30.08F $$ NCZ045>047-081-094-103-104-160700- CENTRAL COAST CITY SKY/WX TMP DP RH WIND PRES REMARKS FRISCO CLOUDY 66 64 93 CALM 30.08F SWANQUARTER N/A 72 N/A N/A S7 30.03F $$ NCZ095-097-098-100-101-160700- SOUTHERN COAST CITY SKY/WX TMP DP RH WIND PRES REMARKS BEAUFORT CLOUDY 73 68 84 SE3 30.08F CEDAR ISLAND N/A 72 N/A N/A S3 30.12S JACKSONVILLE MOCLDY 70 68 93 CALM 30.07F NEWPORT NOT AVBL PINEY ISLAND CLOUDY 73 68 84 SE3 30.08F WILMINGTON CLOUDY 71 69 93 CALM 30.08F $$ NCZ011>013-027>030-043-044-078>080-089-090>093-098-160700- COASTAL PLAIN CITY SKY/WX TMP DP RH WIND PRES REMARKS AHOSKIE MOCLDY 66 64 93 CALM 30.08S CLINTON CLOUDY 69 69 100 CALM 30.08F ELIZABETHTOWN MOCLDY 71 70 96 CALM 30.08F GOLDSBORO CLOUDY 69 68 98 W2 30.07S GREENVILLE CLOUDY 70 68 94 SW3 30.09S HAVELOCK MOCLDY 70 66 87 SE6 30.09F KENANSVILLE CLOUDY 68 66 94 CALM 30.09F KINSTON CLOUDY 68 67 97 CALM 30.08F NEW BERN MOCLDY 71 67 87 CALM 30.09F RICHLANDS MOCLDY 70 64 83 CALM 30.09S ROANOKE RAPIDS NOT AVBL ROCKY MOUNT CLOUDY 68 65 90 CALM 30.08F WASHINGTON CLOUDY 69 66 89 S3 30.08S WHITEVILLE LGT RAIN 71 69 95 CALM 30.08F $$ AMZ130-135-150-152-154-156-158-170-250-252-270-ANZ085-086-088-633-658-670-160700- MARINE OBSERVATIONS STATION/POSITION TIME TEMP WIND PRES WAVE SWELL AIR SEA DIR/SP/G HT/PER HT/PER (UTC) (F) (DEG/KT/KT) (MB) (FT/S) (FT/S) CHESAPEAKE LIGHT 0500 71 190/ 12/ 13 1018.9 BUOY 44014 0600 72 79 160/ 6/ 8 1017.7 2/ 8 2/ 8 DUCK 0600 71 76 N/A 2E DUCK 0500 N/A 2/ 8 OREGON INLET 0600 71 75 N/A BUOY 44095 0600 76 N/A 2/ 7 20E OREGON INLET NOT AVBL HATTERAS CG 0600 72 77 N/A DIAMOND BUOY 0600 74 340/ 2/ 2 1018.5 3/ 8 3/ 8 CAPE LOOKOUT 0500 75 70/ 2/ 2 1019.1 BEAUFORT LAB 0600 73 79 N/A 30 SE NEW RIVER 0600 77 82 50/ 2/ 2 1019.0 2/ 9 2/ 9 5 SE WRIGHTSVILL 0500 73 81 40/ 4/ 6 N/A BUOY 41002 0548 80 83 280/ 8/ 8 1019.1 3/ 8 3/ 8 BUOY 41004 0600 81 83 250/ 2/ 4 1018.0 2/ 8 2/ 8 $$

USA.gov is the U.S. government's official web portal to all federal, state and local government web resources and services.